Date,TemperatureHighF,TemperatureAvgF,TemperatureLowF,DewpointHighF,DewpointAvgF,DewpointLowF,HumidityHigh,HumidityAvg,HumidityLow,PressureMaxIn,PressureMinIn,WindSpeedMaxMPH,WindSpeedAvgMPH,GustSpeedMaxMPH,PrecipitationSumIn
2013-1-1,43.7,41.3,38.0,34.9,32.5,30.7,86,71,61,29.98,29.86,7,2,14,0.00
2013-1-2,39.9,34.8,29.0,31.5,22.8,15.6,73,61,46,30.19,29.95,9,4,16,0.00
2013-1-3,36.3,31.5,27.0,26.0,19.2,15.5,67,60,55,30.22,30.13,8,3,14,0.00
2013-1-4,42.5,37.8,32.4,41.9,21.9,19.2,100,53,43,30.17,30.05,12,7,25,0.00
2013-1-5,40.6,37.2,33.8,30.7,23.9,19.8,78,59,49,30.34,30.11,9,3,18,0.00
2013-1-6,47.3,41.6,35.5,35.3,31.8,26.7,88,69,46,30.19,29.99,6,2,11,0.00
2013-1-7,46.2,40.7,31.8,31.5,28.5,25.6,89,63,45,30.40,30.08,10,4,17,0.00
2013-1-8,50.2,41.5,31.3,36.3,33.2,27.9,91,73,52,30.41,30.33,13,3,21,0.00
2013-1-9,55.7,45.7,34.7,55.0,39.4,29.3,100,80,45,30.35,30.19,10,3,18,0.00
2013-1-10,53.2,46.1,37.1,35.3,31.5,28.1,84,58,39,30.54,30.33,11,4,19,0.00
2013-1-11,48.0,41.5,33.1,46.8,38.2,30.5,100,88,78,30.47,30.06,4,0,8,0.07
2013-1-12,49.5,43.6,41.8,46.1,39.3,-99.9,98,92,86,30.13,30.06,7,1,10,0.00
2013-1-13,52.7,46.0,40.9,51.9,45.1,39.8,97,97,96,30.10,29.96,4,2,11,0.00
2013-1-14,59.6,52.8,42.0,58.1,50.3,38.8,97,91,73,30.23,29.93,13,6,24,0.14
2013-1-15,41.9,38.6,36.3,40.5,34.8,-99.9,96,93,94,30.30,30.11,12,5,24,0.88
2013-1-16,42.5,31.5,35.2,41.4,12.5,-99.9,98,78,94,30.10,29.80,9,4,25,0.38
2013-1-17,42.7,40.5,36.3,41.7,38.2,34.3,97,91,78,30.09,29.93,6,2,12,0.14
2013-1-18,39.1,35.9,28.5,35.0,24.0,15.2,91,63,38,30.48,29.99,15,6,31,0.00
2013-1-19,50.5,42.0,34.5,36.5,31.9,26.0,77,67,54,30.42,29.98,13,7,22,0.00
2013-1-20,58.1,47.2,39.9,35.7,27.9,13.3,65,49,27,30.02,29.79,14,10,24,0.00
2013-1-21,45.7,36.1,28.1,36.2,22.0,13.4,80,57,43,30.08,29.74,17,5,30,0.00
2013-1-22,32.4,23.2,19.5,14.1,0.7,-6.3,50,37,27,30.25,29.87,18,10,35,0.00
2013-1-23,25.4,21.6,17.2,12.0,2.9,-2.3,61,45,31,30.31,30.13,12,6,25,0.00
2013-1-24,29.2,22.7,17.3,16.2,9.2,-1.6,87,58,30,30.47,30.05,13,7,26,0.00
2013-1-25,25.4,22.9,20.1,23.2,10.1,2.1,100,59,37,30.47,30.04,8,3,17,0.00
2013-1-26,33.5,27.5,23.2,19.8,17.7,15.8,81,67,53,30.40,30.04,9,4,17,0.00
2013-1-27,35.6,27.5,19.8,31.0,19.3,15.7,100,72,49,30.57,30.39,8,1,11,0.01
2013-1-28,47.7,36.5,30.6,41.8,32.2,25.5,93,84,78,30.49,30.02,10,4,18,0.03
2013-1-29,62.9,49.9,40.5,50.2,43.8,36.7,92,80,60,30.10,29.98,8,3,15,0.00
2013-1-30,63.2,56.3,47.6,56.7,52.1,44.5,96,86,74,29.99,29.30,14,7,31,0.00
2013-1-31,59.6,45.7,32.5,57.2,29.5,13.2,95,55,33,29.90,29.10,25,11,47,0.54
2013-2-1,34.1,29.2,22.2,29.6,15.3,3.1,91,57,39,30.33,29.77,17,8,36,0.00
2013-2-2,31.5,25.7,19.7,29.8,12.5,4.0,100,59,40,30.35,29.98,12,4,22,0.00
2013-2-3,36.3,29.9,22.8,29.6,25.3,21.1,94,83,64,29.98,29.81,11,2,22,0.02
2013-2-4,37.2,31.0,26.0,29.7,17.9,9.1,76,59,47,30.08,29.88,16,6,35,0.00
2013-2-5,43.1,37.5,31.3,42.2,28.7,27.0,100,71,57,29.90,29.82,6,2,10,0.00
2013-2-6,44.2,36.2,30.4,33.4,27.8,22.4,93,73,47,30.32,29.90,12,4,20,0.00
2013-2-7,41.1,33.9,27.5,29.4,25.1,21.5,85,71,54,30.42,30.16,9,3,16,0.00
2013-2-8,42.2,38.4,34.6,41.7,35.6,24.3,98,91,61,30.16,29.64,16,8,35,0.58
2013-2-9,38.9,33.7,29.5,24.4,18.2,15.2,62,53,42,30.33,29.83,19,10,40,0.00
2013-2-10,39.9,32.8,24.8,31.1,18.0,8.5,78,56,32,30.47,30.25,6,2,13,0.00
2013-2-11,55.1,46.8,37.3,53.8,44.0,31.4,100,90,74,30.25,29.68,13,5,22,0.19
2013-2-12,54.1,47.1,40.8,49.6,30.6,25.3,100,54,34,29.96,29.74,8,3,19,0.00
2013-2-13,46.1,39.5,34.4,39.0,31.3,25.5,95,73,58,29.93,29.60,9,4,20,0.29
2013-2-14,46.1,38.6,34.3,34.9,31.9,25.9,96,78,49,30.00,29.71,8,3,14,0.00
2013-2-15,56.9,44.2,35.9,38.7,35.5,33.0,92,73,45,30.01,29.86,12,3,23,0.00
2013-2-16,39.1,35.1,33.4,35.1,30.4,19.3,92,84,54,29.97,29.74,14,7,26,0.09
2013-2-17,33.8,30.0,25.8,19.7,12.0,6.1,62,47,35,30.14,29.75,17,11,35,0.01
2013-2-18,38.2,30.4,23.6,28.0,12.2,5.0,72,47,30,30.34,30.14,15,6,33,0.00
2013-2-19,46.1,41.2,36.6,44.1,34.0,24.7,93,76,57,30.17,29.70,11,6,21,0.07
2013-2-20,40.2,34.2,27.0,27.0,15.9,8.4,59,47,39,30.11,29.81,14,9,29,0.00
2013-2-21,38.2,30.9,25.7,17.9,13.8,9.9,55,49,39,30.27,30.08,12,8,28,0.00
2013-2-22,36.2,32.2,29.3,36.2,22.9,16.7,100,69,55,30.36,30.19,8,2,15,0.04
2013-2-23,44.1,39.6,34.3,44.1,39.0,32.5,100,98,93,30.18,29.75,8,4,15,0.14
2013-2-24,51.0,42.2,34.7,43.6,33.7,21.2,100,76,38,30.04,29.74,14,7,29,0.02
2013-2-25,44.5,36.6,31.3,29.4,24.2,20.9,86,61,46,30.19,30.04,10,4,23,0.00
2013-2-26,51.3,39.1,29.3,50.0,35.0,27.0,96,86,73,30.19,29.54,13,5,27,0.24
2013-2-27,53.8,48.3,41.6,50.8,42.5,36.7,100,82,56,29.65,29.44,11,4,20,0.02
2013-2-28,46.4,42.8,37.5,39.2,32.9,27.3,91,69,50,29.68,29.58,10,4,21,0.16
2013-3-1,44.6,41.6,39.3,31.8,29.7,26.0,71,63,54,29.82,29.67,10,5,21,0.00
2013-3-2,39.2,35.9,32.2,26.1,23.1,19.5,69,60,51,29.82,29.76,9,6,20,0.00
2013-3-3,38.8,34.3,31.0,21.9,20.0,17.0,67,56,46,29.85,29.74,13,8,26,0.00
2013-3-4,41.8,35.3,29.3,21.4,18.6,14.9,60,50,40,29.99,29.85,14,8,26,0.00
2013-3-5,45.4,37.7,31.8,29.3,22.0,15.5,69,54,30,30.05,29.79,7,3,14,0.00
2013-3-6,40.6,37.9,33.8,38.5,35.2,26.2,95,90,61,29.87,29.47,23,15,46,1.27
2013-3-7,47.0,41.5,37.8,30.8,28.2,24.8,70,59,47,30.08,29.87,17,11,34,0.00
2013-3-8,45.4,41.5,36.3,30.2,26.4,22.2,65,55,48,30.19,30.05,19,12,39,0.00
2013-3-9,57.2,43.7,36.9,30.0,25.3,21.4,76,50,26,30.28,30.18,12,6,24,0.00
2013-3-10,57.2,44.4,31.9,38.0,31.6,22.2,91,64,28,30.31,30.22,7,2,12,0.00
2013-3-11,58.3,48.6,39.9,48.6,43.6,37.5,98,84,68,30.24,29.97,7,3,22,0.00
2013-3-12,56.3,52.2,43.5,55.4,47.3,32.5,97,84,62,29.97,29.67,17,8,32,0.56
2013-3-13,49.1,42.9,35.6,33.6,28.8,19.1,83,58,38,30.00,29.85,13,6,29,0.00
2013-3-14,45.1,38.4,33.5,19.6,17.0,13.0,55,42,28,30.07,29.96,16,10,34,0.00
2013-3-15,51.3,43.2,35.9,36.1,25.7,18.8,69,51,30,30.05,29.76,16,6,23,0.00
2013-3-16,56.2,46.4,37.5,49.8,36.8,32.9,100,70,52,29.87,29.61,10,3,19,0.00
2013-3-17,40.9,37.9,35.9,39.8,29.3,24.6,100,71,58,30.24,29.87,11,5,22,0.00
2013-3-18,40.6,37.7,32.2,39.0,30.8,19.9,100,77,51,30.30,29.82,8,4,18,0.31
2013-3-19,55.4,44.9,38.6,41.3,35.1,13.5,98,75,23,29.85,29.68,12,4,30,0.02
2013-3-20,50.7,43.9,37.6,33.8,19.9,10.3,67,39,23,29.97,29.73,14,6,30,0.00
2013-3-21,45.2,35.9,31.0,34.6,18.2,7.8,100,50,30,29.85,29.68,14,9,28,0.00
2013-3-22,46.5,36.6,30.6,22.8,16.7,9.6,55,45,30,29.96,29.84,12,7,26,0.00
2013-3-23,51.4,40.7,33.1,42.6,23.7,20.3,100,51,33,29.99,29.87,10,5,21,0.00
2013-3-24,42.1,37.3,33.1,31.9,24.6,20.0,93,62,44,29.96,29.64,8,2,16,0.05
2013-3-25,35.6,33.9,32.4,34.8,32.9,31.2,97,96,93,29.64,29.44,7,4,15,0.63
2013-3-26,49.2,41.0,34.1,34.5,32.1,26.2,96,73,44,29.92,29.64,8,5,16,0.12
2013-3-27,49.2,43.9,39.9,31.4,28.9,26.5,67,56,43,30.05,29.92,13,7,27,0.00
2013-3-28,48.3,43.7,39.1,33.6,29.5,26.0,68,58,42,30.16,30.04,12,7,24,0.00
2013-3-29,54.1,45.7,40.1,50.1,31.0,25.4,100,58,38,30.20,30.10,8,4,19,0.00
2013-3-30,57.5,47.7,38.5,37.5,31.7,24.1,88,58,28,30.18,30.08,6,1,10,0.00
2013-3-31,56.9,49.4,43.3,50.3,43.0,35.5,94,79,60,30.11,29.71,10,4,26,0.02
2013-4-1,62.7,52.1,44.1,49.9,40.5,22.0,98,68,40,29.91,29.66,13,6,28,0.01
2013-4-2,48.9,43.1,38.9,25.2,16.8,9.8,48,35,22,30.13,29.92,12,6,26,0.00
2013-4-3,50.2,42.0,37.6,20.1,16.2,11.3,44,36,23,30.32,30.13,17,7,32,0.00
2013-4-4,44.8,39.1,31.5,36.1,21.3,11.9,90,50,29,30.38,30.08,10,4,20,0.13
2013-4-5,60.5,47.3,37.2,42.1,34.7,23.9,98,68,25,30.07,29.77,10,4,20,0.82
2013-4-6,53.3,46.8,40.8,33.8,25.6,19.7,65,44,31,30.30,29.97,11,5,21,0.00
2013-4-7,61.2,50.9,41.3,46.3,40.2,30.4,84,68,51,30.28,29.98,9,5,22,0.00
2013-4-8,74.2,61.8,50.2,54.2,48.5,44.6,85,63,42,30.05,29.94,5,2,15,0.00
2013-4-9,80.3,68.9,60.9,56.2,53.1,50.8,70,58,40,30.04,29.91,9,5,17,0.00
2013-4-10,85.5,73.4,62.1,81.8,55.9,53.1,100,56,36,29.93,29.76,12,6,18,0.00
2013-4-11,82.2,67.2,51.4,81.1,56.8,49.4,100,71,49,29.84,29.73,13,4,27,0.00
2013-4-12,71.5,59.3,51.0,66.7,57.6,49.3,100,94,80,29.80,29.54,12,5,21,0.42
2013-4-13,64.3,55.6,47.0,50.8,44.2,38.1,95,68,42,29.91,29.66,14,4,29,0.00
2013-4-14,65.2,55.7,45.5,50.1,43.5,36.2,96,67,35,30.09,29.91,11,2,19,0.00
2013-4-15,60.2,56.4,53.2,48.0,46.2,43.5,82,69,56,30.25,30.08,8,3,18,0.00
2013-4-16,69.4,60.6,52.5,56.6,52.5,46.9,84,75,62,30.27,30.10,10,4,22,0.00
2013-4-17,76.3,63.6,59.0,61.9,56.7,52.6,94,79,56,30.19,30.08,9,3,18,0.00
2013-4-18,75.3,64.0,57.5,63.9,57.4,53.3,96,80,57,30.21,30.03,9,4,23,0.05
2013-4-22,53.1,47.5,36.2,40.7,37.6,31.2,83,69,58,30.50,30.35,11,7,25,0.00
2013-4-23,59.2,50.4,45.1,45.1,42.1,38.3,87,74,57,30.35,30.09,9,5,21,0.00
2013-4-24,68.4,58.2,45.5,66.9,51.3,43.1,100,79,62,30.10,29.79,13,5,22,0.00
2013-4-25,67.3,55.0,48.3,55.0,38.5,32.1,82,55,35,30.25,29.86,14,6,32,0.00
2013-4-26,66.0,55.6,44.9,45.8,39.1,28.6,91,57,30,30.39,30.24,9,3,16,0.00
2013-4-27,68.3,57.6,46.8,49.6,41.2,30.4,96,59,28,30.38,30.25,8,2,13,0.00
2013-4-28,66.9,58.4,50.4,49.4,42.9,34.6,90,59,33,30.26,30.13,10,3,17,0.00
2013-4-29,58.3,55.6,53.3,57.7,53.8,43.3,98,94,61,30.14,30.02,7,3,19,0.72
2013-4-30,58.4,56.2,53.6,55.6,53.8,48.6,98,92,79,30.22,30.03,11,5,23,0.04
2013-5-1,66.4,55.8,46.4,60.4,43.4,33.0,100,67,30,30.38,30.22,9,6,21,0.00
2013-5-2,66.3,55.3,47.3,49.7,45.3,38.4,94,72,38,30.39,30.27,7,3,16,0.00
2013-5-3,59.5,53.9,47.0,59.5,42.6,37.0,100,67,45,30.33,30.26,10,5,22,0.00
2013-5-5,60.4,52.8,43.8,57.8,43.1,39.3,100,70,56,30.20,30.11,8,4,16,0.00
2013-5-6,62.3,54.4,46.8,61.8,51.7,43.9,100,91,81,30.14,30.02,9,6,20,0.00
2013-5-7,62.7,59.5,56.7,62.0,58.5,55.9,100,97,89,30.02,29.88,9,6,19,0.83
2013-5-8,70.1,60.4,55.9,68.1,56.0,52.0,100,87,56,29.96,29.89,12,2,20,0.07
2013-5-9,72.7,62.2,55.4,60.2,57.0,54.8,99,85,58,29.95,29.87,8,3,12,0.04
2013-5-10,80.7,69.5,58.0,69.6,59.3,54.7,100,73,43,29.97,29.83,6,2,16,0.00
2013-5-11,77.2,68.5,63.1,66.8,63.1,60.1,97,84,59,29.89,29.66,15,4,34,0.63
2013-5-12,64.2,61.4,56.7,62.0,43.8,27.6,97,57,27,29.96,29.67,14,7,27,0.16
2013-5-13,59.9,54.9,48.8,33.3,28.9,23.5,50,37,27,30.09,29.96,13,7,25,0.00
2013-5-14,61.8,53.2,44.1,60.4,34.0,25.6,99,49,30,30.16,30.02,9,3,18,0.00
2013-5-15,79.6,67.6,55.9,76.7,54.6,44.7,100,64,50,30.03,29.64,10,4,18,0.00
2013-5-16,81.2,73.9,69.4,62.5,60.1,56.8,76,63,44,29.79,29.69,8,4,14,0.00
2013-5-17,79.2,73.7,63.9,57.4,45.7,36.2,60,39,24,30.11,30.01,8,3,16,0.00
2013-5-18,64.8,61.6,59.5,58.4,54.6,48.2,94,78,58,30.19,30.11,5,3,16,0.03
2013-5-19,76.1,66.9,60.1,66.2,63.1,58.4,97,88,68,30.16,30.05,4,1,11,0.00
2013-5-20,81.1,72.0,67.3,68.5,66.8,64.6,95,84,64,30.08,29.94,9,4,16,0.00
2013-5-21,81.1,73.3,68.8,79.6,67.5,66.3,100,83,65,29.96,29.84,9,5,15,0.00
2013-5-22,82.4,75.3,70.9,70.4,68.9,66.9,93,81,66,29.90,29.81,11,6,20,0.00
2013-5-23,77.2,73.6,70.4,68.8,67.3,66.3,90,81,71,29.87,29.71,12,6,21,0.00
2013-5-24,70.4,59.7,52.2,67.6,51.7,36.6,100,75,55,30.05,29.68,16,9,32,0.07
2013-5-25,65.2,56.3,48.0,40.4,36.6,33.6,65,49,33,30.08,30.01,14,10,30,0.00
2013-5-26,70.6,61.2,54.4,63.8,39.5,33.2,96,47,27,30.16,30.07,10,5,20,0.00
2013-5-27,70.4,62.8,51.9,56.8,47.4,34.5,90,60,27,30.22,30.13,6,1,10,0.00
2013-5-28,81.1,69.6,61.2,67.8,60.6,53.9,92,74,60,30.16,30.02,19,3,29,0.18
2013-5-29,86.7,77.8,69.9,68.8,66.5,64.2,84,69,50,30.08,30.02,11,6,19,0.00
2013-5-30,87.6,78.1,71.1,85.3,67.0,64.2,100,69,50,30.14,30.06,10,4,17,0.00
2013-5-31,86.7,78.1,71.3,70.1,67.6,64.0,90,71,50,30.11,29.99,11,5,18,0.00
2013-6-1,88.4,79.3,72.5,70.3,68.8,66.9,86,71,51,30.01,29.89,13,7,22,0.00
2013-6-2,84.7,77.3,69.6,70.2,68.4,65.9,95,75,59,29.90,29.79,24,8,41,0.42
2013-6-3,76.8,71.4,67.6,69.7,67.7,65.8,96,88,74,29.86,29.74,8,3,17,0.41
2013-6-4,76.3,68.0,60.9,72.1,51.0,42.2,100,57,34,30.06,29.86,11,5,19,0.00
2013-6-5,78.8,68.9,59.8,60.1,56.0,48.8,95,66,37,30.12,30.02,9,3,16,0.00
2013-6-6,77.2,68.8,61.2,65.2,59.5,54.2,100,73,54,30.05,29.83,6,3,18,0.04
2013-6-7,84.1,70.0,66.6,84.1,68.9,65.2,100,96,87,29.82,29.47,12,4,24,2.72
2013-6-8,75.6,69.6,66.4,66.7,65.0,62.8,100,86,68,30.03,29.59,10,3,25,0.10
2013-6-9,82.8,73.8,66.6,69.7,66.8,63.0,100,80,52,30.14,30.03,5,1,14,0.00
2013-6-10,79.4,74.0,69.8,74.8,70.9,65.7,98,90,77,30.06,29.77,16,5,32,0.74
2013-6-11,82.6,75.4,70.1,70.3,67.2,63.4,96,77,53,29.79,29.71,12,8,22,0.00
2013-6-12,85.5,78.8,73.3,72.0,66.7,63.7,80,67,55,29.81,29.74,9,4,15,0.00
2013-6-13,88.0,77.9,71.5,86.3,69.0,63.7,100,75,52,29.67,29.41,17,8,31,0.02
2013-6-14,74.9,67.0,59.3,69.4,56.1,51.1,96,70,47,29.90,29.60,15,7,31,0.10
2013-6-15,81.1,73.1,66.1,67.2,59.7,55.0,87,64,41,30.02,29.90,6,3,12,0.00
2013-6-16,82.8,75.6,69.9,70.0,66.9,63.6,91,75,57,29.97,29.82,13,6,21,0.00
2013-6-17,82.8,76.9,73.3,72.5,69.7,66.9,89,79,60,29.91,29.83,10,4,15,0.00
2013-6-18,76.5,71.1,63.4,72.3,68.7,62.5,98,93,85,29.87,29.73,14,3,25,0.01
2013-6-19,77.2,68.8,63.1,68.8,62.8,59.3,100,82,58,30.11,29.81,9,3,18,0.00
2013-6-20,76.8,69.8,62.6,60.7,56.8,49.1,90,65,48,30.22,30.11,10,3,15,0.00
2013-6-21,81.2,70.7,59.6,64.2,58.2,50.4,91,67,43,30.25,30.19,5,1,10,0.00
2013-6-22,84.3,74.1,63.1,67.5,63.0,59.6,94,70,50,30.20,30.10,2,0,9,0.00
2013-6-23,80.7,74.5,68.9,76.5,69.3,63.0,100,84,72,30.13,30.03,0,0,1,0.03
2013-6-24,88.2,78.4,73.0,81.2,72.4,69.6,100,83,57,30.08,29.96,0,0,1,0.01
2013-6-25,75.3,72.7,71.6,72.6,71.2,70.1,96,95,91,29.99,29.94,0,-428,0,0.00
2013-6-26,89.0,80.5,71.3,75.7,72.3,69.2,96,77,57,29.86,29.74,0,-340,0,0.00
2013-6-27,84.3,77.4,73.3,73.8,70.9,68.4,90,81,70,29.78,29.56,0,-727,4,0.02
2013-6-28,87.0,77.0,69.1,81.2,71.0,67.8,100,83,58,29.59,29.45,0,-541,0,1.70
2013-6-29,86.1,77.8,69.8,74.4,70.9,64.2,99,81,53,29.65,29.46,0,-550,0,0.00
2013-6-30,84.1,79.1,77.0,75.1,74.0,72.7,92,85,72,29.81,29.65,0,-474,0,0.00
2013-7-1,79.4,76.9,73.5,76.0,73.6,71.5,96,90,82,29.96,29.80,0,-892,0,0.38
2013-7-2,82.6,76.9,74.4,74.8,72.4,70.1,96,86,73,30.14,29.96,0,-762,1,0.47
2013-7-3,86.5,79.4,75.3,79.4,73.4,71.5,100,83,65,30.19,30.12,0,-575,0,0.01
2013-7-4,87.0,80.6,76.7,78.3,73.0,71.2,100,78,62,30.23,30.14,0,-344,0,0.00
2013-7-5,87.8,81.6,76.7,87.6,73.2,71.2,100,76,61,30.19,30.08,0,-289,0,0.00
2013-7-6,90.3,82.9,78.8,75.9,73.9,71.4,87,75,58,30.14,30.02,0,-319,1,0.00
2013-7-7,89.7,82.8,76.3,75.2,72.7,68.0,81,72,59,30.07,29.95,0,-320,5,0.00
2013-7-9,85.1,81.0,77.6,75.6,72.7,70.3,87,76,63,30.05,29.95,0,-554,0,0.00
2013-7-10,87.6,81.5,74.9,75.6,74.1,71.3,92,79,59,29.97,29.81,0,-480,3,0.08
2013-7-11,83.6,77.9,74.6,73.9,71.2,67.1,95,81,58,29.86,29.81,0,-422,0,0.08
2013-7-12,76.5,72.2,68.3,73.8,70.7,67.4,98,95,87,29.94,29.82,0,-688,0,0.98
2013-7-13,85.3,77.6,70.8,74.8,72.1,69.6,97,84,66,30.22,29.94,0,-575,0,0.00
2013-7-14,88.4,81.0,76.0,87.2,73.3,68.0,100,79,52,30.28,30.22,0,-309,0,0.00
2013-7-15,90.7,82.4,76.7,75.7,73.7,71.4,91,76,54,30.25,30.13,0,-373,0,0.00
2013-7-16,92.1,86.0,80.3,76.1,72.3,68.8,84,65,48,30.15,30.09,0,-344,0,0.00
2013-7-17,94.3,85.3,78.3,77.2,73.8,69.1,92,71,46,30.14,30.03,0,-285,0,0.00
2013-7-18,91.6,83.7,79.0,78.4,75.9,72.6,90,78,54,30.06,30.00,0,-483,0,0.00
2013-7-19,93.4,87.6,82.4,78.2,76.1,73.8,80,70,54,29.96,29.82,0,-411,0,0.00
2013-7-20,85.7,82.9,81.4,76.7,75.4,74.3,81,78,74,29.85,29.80,0,-438,0,0.00
2013-7-21,89.7,81.8,77.6,87.0,71.6,67.0,100,72,53,29.88,29.82,0,-378,0,0.00
2013-7-22,88.2,81.3,75.1,76.6,73.5,70.6,93,78,60,29.87,29.72,0,-348,0,0.00
2013-7-23,87.0,81.6,77.9,76.2,72.0,67.3,86,73,55,29.72,29.58,0,-918,0,0.00
2013-7-24,82.8,78.7,74.0,71.6,67.6,61.2,82,69,58,29.83,29.62,0,-634,0,0.00
2013-7-25,74.9,69.5,64.3,64.4,59.6,54.3,84,71,63,29.96,29.83,0,-822,0,0.00
2013-7-26,83.0,73.0,64.2,65.8,60.7,56.0,88,67,41,30.02,29.96,0,-588,1,0.00
2013-7-27,84.1,76.7,71.5,71.0,67.7,64.2,95,75,53,30.01,29.89,0,-244,0,0.00
2013-7-28,86.5,78.0,70.9,74.5,70.0,66.6,96,77,59,29.91,29.82,0,-247,2,0.67
2013-7-29,82.6,74.9,68.9,70.4,60.4,51.9,91,63,39,30.09,29.91,0,-253,0,0.00
2013-7-30,80.9,73.9,66.8,79.8,60.2,54.1,100,64,43,30.16,30.09,0,-236,0,0.00
2013-7-31,80.3,75.1,69.4,78.1,66.1,61.6,100,75,56,30.10,29.98,0,-610,0,0.00
2013-8-1,77.2,73.5,70.4,71.8,69.7,65.9,96,88,73,29.98,29.77,0,-436,0,0.61
2013-8-2,84.5,77.3,69.9,70.7,66.7,59.0,93,72,48,29.91,29.78,0,-584,0,0.00
2013-8-3,79.8,75.5,70.8,78.8,66.5,62.6,100,74,57,29.92,29.87,0,-506,1,0.00
2013-8-4,80.9,73.8,68.9,68.0,60.4,54.1,91,65,42,29.96,29.83,0,-575,6,0.00
2013-8-5,79.4,71.1,62.3,61.0,56.3,52.0,81,61,40,30.04,29.95,0,-633,0,0.00
2013-8-6,74.4,70.1,68.1,67.4,64.8,59.3,90,83,68,30.05,29.97,0,-928,0,0.03
2013-8-7,84.1,75.0,68.9,71.6,68.6,65.3,94,81,63,30.03,29.96,0,-572,0,0.00
2013-8-8,85.3,79.2,75.8,74.1,72.2,70.2,88,79,67,30.00,29.94,0,-663,0,0.00
2013-8-9,89.5,80.8,76.1,76.5,74.5,73.0,95,82,62,29.94,29.79,0,-568,1,0.03
2013-8-10,82.0,78.3,75.6,79.2,68.2,52.4,100,72,37,29.99,29.87,0,-660,0,0.00
2013-8-11,80.5,76.3,71.6,80.3,69.4,67.0,100,80,67,30.05,29.97,0,-529,0,0.00
2013-8-12,87.2,78.1,71.6,78.5,71.1,67.3,100,80,54,29.98,29.86,0,-566,0,0.00
2013-8-13,83.4,78.5,70.9,79.0,71.1,65.9,100,79,58,29.86,29.69,0,-240,0,0.02
2013-8-14,74.4,68.7,64.3,60.3,51.9,46.5,83,55,47,30.02,29.77,0,-356,10,0.00
2013-8-15,76.7,68.3,61.0,56.3,52.3,46.3,75,58,36,30.13,30.02,0,-460,1,0.00
2013-8-16,77.6,69.9,60.1,77.4,56.8,49.8,100,66,39,30.15,30.08,0,-259,0,0.00
2013-8-17,77.6,69.4,60.9,64.4,59.4,55.2,92,72,47,30.21,30.13,0,-847,0,0.00
2013-8-18,72.0,67.4,64.0,66.1,63.4,60.9,100,87,76,30.17,30.09,0,-834,0,0.01
2013-8-19,72.8,69.3,64.7,66.6,65.0,62.8,95,86,78,30.13,30.03,0,-868,0,0.00
2013-8-20,81.6,74.7,67.3,71.8,68.2,65.7,96,81,61,30.11,30.03,0,-468,1,0.00
2013-8-21,85.7,78.2,72.3,73.6,71.5,66.2,97,81,54,30.15,30.03,0,0,0,0.00
2013-8-22,85.9,77.9,71.3,75.4,71.2,69.1,100,81,59,30.05,29.87,0,0,1,0.01
2013-8-23,78.6,74.5,67.8,74.7,65.2,57.4,100,73,62,30.04,29.86,0,0,2,0.00
2013-8-24,80.3,71.2,63.9,66.1,62.0,59.2,93,74,49,30.28,30.04,0,-647,0,0.00
2013-8-25,78.8,69.9,61.5,66.6,59.3,53.5,100,72,45,30.37,30.23,0,-363,3,0.00
2013-8-26,82.4,74.1,68.1,69.3,62.4,56.6,100,67,55,30.25,29.96,0,0,1,0.00
2013-8-27,88.4,79.1,72.1,88.4,69.1,65.3,100,72,55,29.96,29.82,0,0,7,0.00
2013-8-28,83.6,76.0,72.7,74.1,72.1,70.1,96,88,64,29.85,29.77,0,0,5,0.13
2013-8-29,82.4,74.9,69.6,72.8,69.9,64.9,98,85,64,29.97,29.77,0,0,6,0.01
2013-8-30,82.8,74.6,68.1,79.8,68.4,64.9,100,82,63,29.99,29.86,0,0,2,0.00
2013-8-31,85.3,79.3,73.9,73.3,71.1,69.1,88,76,64,29.88,29.76,0,0,1,0.00
2013-9-1,87.2,80.2,75.1,79.9,72.2,69.8,100,77,60,29.80,29.71,0,0,0,0.00
2013-9-2,86.1,79.4,75.6,75.9,72.7,70.7,89,80,64,29.75,29.68,0,-481,6,0.00
2013-9-3,84.0,79.0,72.5,74.5,65.7,56.7,88,66,41,29.88,29.67,0,-551,7,0.00
2013-9-4,79.4,72.8,66.3,67.8,58.4,55.3,100,61,49,30.01,29.88,0,-170,11,0.00
2013-9-5,83.8,75.8,69.6,65.5,60.7,50.9,82,61,43,30.06,29.93,0,-469,9,0.00
2013-9-6,75.4,66.2,57.6,75.1,51.7,47.0,100,61,43,30.19,30.05,0,-966,2,0.00
2013-9-7,78.1,68.8,59.9,64.3,58.5,49.8,92,72,41,30.08,29.88,0,-614,2,0.00
2013-9-8,85.9,75.9,69.1,66.9,64.1,59.0,84,68,48,29.98,29.80,0,-999,0,0.00
2013-9-9,70.6,64.5,59.6,58.3,52.0,48.8,69,64,60,30.10,29.98,0,-999,0,0.00
2013-9-11,89.7,82.6,75.4,73.7,71.9,69.6,88,71,53,30.09,29.97,0,-138,0,0.00
2013-9-12,88.2,77.5,70.3,73.7,70.4,66.6,99,80,55,29.97,29.68,0,-892,0,0.55
2013-9-13,77.4,72.4,66.4,72.7,60.2,49.0,99,68,39,29.83,29.63,0,-999,0,0.00
2013-9-14,68.8,62.4,55.7,53.9,50.1,47.3,85,65,49,30.11,29.83,0,-999,0,0.00
2013-9-15,74.2,63.6,52.8,60.5,53.7,49.6,92,72,47,30.19,30.05,0,-999,0,0.00
2013-9-16,71.3,67.6,61.8,62.9,58.8,51.9,81,73,55,30.16,29.99,0,-999,0,0.00
2013-9-17,66.8,59.0,51.0,52.0,45.2,38.5,76,62,37,30.35,30.16,0,-999,0,0.00
2013-9-18,67.8,58.6,48.8,66.3,49.5,45.8,100,73,49,30.30,30.15,0,-570,0,0.00
2013-9-19,74.0,64.3,55.3,58.0,54.1,48.0,91,71,45,30.16,30.04,0,-974,0,0.00
2013-9-20,76.7,67.0,58.7,62.7,58.9,53.8,98,77,47,30.04,29.92,0,-999,0,0.00
2013-9-21,76.8,68.5,61.8,68.5,62.7,56.8,97,83,55,29.95,29.65,0,-991,0,0.30
2013-9-22,71.1,65.0,59.2,64.9,56.8,48.6,97,77,49,29.87,29.66,0,-533,8,0.00
2013-9-23,66.8,57.9,52.6,62.7,46.1,41.6,100,66,50,30.02,29.87,0,-999,0,0.00
2013-9-24,70.8,58.0,48.9,57.5,48.6,44.0,100,73,45,30.04,29.89,0,-999,0,0.00
2013-9-25,73.5,61.1,53.1,56.4,51.3,42.1,96,73,34,29.92,29.83,0,-999,0,0.00
2013-9-26,72.8,63.2,56.5,59.2,55.2,47.9,96,77,46,30.02,29.86,0,-999,0,0.00
2013-9-27,69.1,62.7,56.9,58.6,55.1,52.2,98,78,55,30.19,30.02,0,-336,0,0.00
2013-9-28,71.3,61.9,54.8,56.7,53.6,51.7,92,76,51,30.24,30.16,9,-77,16,0.00
2013-9-29,72.5,62.0,54.8,58.7,53.7,50.7,96,76,47,30.16,30.00,7,4,13,0.00
2013-9-30,74.7,62.0,52.9,56.8,52.5,47.9,94,74,42,30.04,29.94,7,3,13,0.00
2013-10-1,77.6,67.2,58.4,65.1,59.8,55.8,96,78,54,30.01,29.91,8,4,14,0.00
2013-10-2,81.6,72.5,64.7,81.1,62.3,59.4,100,72,50,30.02,29.94,8,4,15,0.00
2013-10-3,79.4,71.0,64.2,67.3,64.5,63.0,97,81,59,30.05,29.99,5,1,10,0.00
2013-10-4,83.0,72.4,66.1,74.6,65.9,62.1,100,82,51,30.03,29.95,5,1,8,0.00
2013-10-5,84.3,74.7,68.3,69.2,66.3,61.3,96,77,49,30.03,29.95,8,2,12,0.00
2013-10-6,84.9,75.6,69.9,68.9,67.3,64.6,94,77,51,29.98,29.90,13,-39,24,0.00
2013-10-7,78.5,68.9,59.5,70.9,65.2,48.9,97,88,63,29.98,29.76,23,-146,43,0.52
2013-10-8,61.6,20.2,55.5,52.1,-49.1,-99.9,80,23,57,30.21,29.99,14,-194,23,0.00
2013-10-9,59.8,36.9,54.8,55.0,-1.0,-99.9,95,56,73,30.22,30.11,15,-140,23,0.27
2013-10-10,60.1,57.6,54.7,60.1,56.9,53.4,100,98,95,30.10,29.89,18,-18,31,0.97